Location: Cactus School
(34.5700°N, 118.0931°W)
Time: 23:15:14
(UTC-08:00)

Tiros 1 - Pass Details

Date: 27 November 2019
Orbit: 630 x 664 km, 48.4° (Epoch: 15 December)

Event Time Altitude Azimuth Distance (km) Brightness Sun altitude
Rises 12:04:27 0° 275° (W) 2,920 10.5 33.9°
Reaches altitude 10° 12:07:16 10° 291° (WNW) 2,010 9.7 33.9°
Maximum altitude 12:10:47 21° 341° (NNW) 1,418 8.7 33.8°
Drops below altitude 10° 12:14:18 10° 31° (NNE) 2,008 9.3 33.7°
Sets 12:17:07 0° 47° (NE) 2,917 10.1 33.6°
